OPS 7323 (DMSP 5B F3)

Satellite information

Favourite Embed

Satellite Type and Status

PAYLOADIN ORBIT

Key statistics

Satellite OPS 7323 (DMSP 5B F3) at a glance.

Uptime

19337

Days in orbit

Revolutions

≈ 14.3

Per day

Orbit

SSO

Sun Synchronous Orbit

Inclination

98.5

Latest

Satellite identification and parameters

Extended collection of information and parameters for OPS 7323 (DMSP 5B F3).

Object identification

Identified? True

Debris? False

Object name: OPS 7323 (DMSP 5B F3)

International designator: 1972-089A

Object number (NORAD): 6275

Object ID (CCSDS): 6275

Country: UNITED STATES OF AMERICA (US)

Current information (Y/N): Y

RCS size: LARGE

Orbital parameters

Period: 100.718 minutes

Inclination: 98.5098 deg

SMA: 7170.768 km

Apoapsis: 817.03 km

Periapsis: 768.236 km

RAAN: 97.8549 deg

Eccentricy: 0.00340227

Argument of periapsis: 315.2311 deg

Mean anomaly: 44.6126 deg

Mean motion: 14.2973074 rev/day

Mean motion (dot): 0.00000552 rev/day2

B* drag term: 0.00023056551 1/REarth

Two-line elements (TLE)

Creation date: Oct. 18, 2025, 2:17 a.m.

Reference frame: TEME

Reference center: EARTH

Epoch: Oct. 17, 2025, 11:26 p.m. UTC

TLE line 0: 0 OPS 7323 (DMSP 5B F3)

TLE line 1: 1 06275U 72089A 25290.97645625 .00000552 00000-0 23057-3 0 9990

TLE line 2: 2 06275 98.5098 97.8549 0034023 315.2311 44.6126 14.29730740750069

Live tracking on map

Real-time ground track for satellite OPS 7323 (DMSP 5B F3).

In-orbit conjunctions

There are no conjunctions computed for OPS 7323 (DMSP 5B F3), at the moment. Check back to stay up to date, as we update our databases every day.

Go to all conjunctions

Associated space launch

Military meteorological satellite

OPS 7323 (DMSP 5B F3) was lifted into orbit during the mission ‘Thor Burner 2A | DSAP-5B F3’, on board a Thor Burner 2A space rocket.

The launch took place on Nov. 9, 1972, 3:23 a.m. from Space Launch Complex 10W.

For more information about the launch, click the button.

Launch to space Thor Burner 2A | DSAP-5B F3
Thor Burner 2A | DSAP-5B F3

Agency: N/A

Status: Launch Successful

Launch date: Nov. 9, 1972, 3:23 a.m. UTC

Rocket: Thor Burner 2A

Launch pad: Space Launch Complex 10W

Location: Vandenberg SFB, CA, USA

...

Latest news about this satellite

There are no fresh news available about this satellite. Check back as we update our databases every day.


Newsletter sign-up

Weekly statistics, charts and insights to help you stay on top of the space industry.